Погода в Заречье

Россия / Калининградская область     54°36′51″N   21°02′03″E
темп.,
°C
ветер,
м/с
пор.,
м/с
влажн.,
%
обл.,
%
осадки,
мм/ч
давл.,
гПа
погр.,
м
13 августа, сб
сб1323:00+18в34825 0.0 102370
02:00+16в229165 0.0 102336
05:00+15всв349396 0.0 102260
08:00+21всв476742 0.0 1021296
11:00+26в454729 0.0 10211014
14:00+29всв45395 0.0 10191396
17:00+28в55415 0.0 10191518
20:00+22всв356880 0.0 101996
14 августа, вс
вс1423:00+18всв358455 0.0 101984
02:00+16всв34907 0.0 101866
05:00+15всв34915 0.0 101770
08:00+21всв36638 0.0 1017285
11:00+26в564356 0.0 1016985
14:00+28в5545100 0.0 10151373
17:00+27в5650100 0.0 10131387
20:00+23всв3874100 0.6 1013187
15 августа, пн
пн1523:00+20всв398437 0.4 1012207
02:00+19всв378899 0.4 1012141
05:00+18в359495 0.0 101193
08:00+21в368081 0.1 1010212
11:00+28вюв5750100 0.0 1010831
14:00+32вюв583848 0.0 10091687
17:00+31юв583992 0.0 10091805
20:00+26юв51153100 0.0 1010523
16 августа, вт
вт1623:00+24вюв3751100 0.0 1010214
02:00+21в36656 0.1 1010122
05:00+19в367812 0.0 1010120
08:00+24вюв356257 0.0 1010307
11:00+30юв57405 0.0 10101279
14:00+33юв46315 0.0 10092308
17:00+31вюв783884 0.0 10091075
20:00+24юв366043 0.0 1010117
17 августа, ср
ср1723:00+23юв4106470 0.0 1011381
02:00+20юв36765 0.0 1012205
05:00+17юв22914 0.0 101132
08:00+22юв23694 0.0 1012321
11:00+27юв22491 0.0 10121000
14:00+31вюв11393 0.0 10111841
17:00+31в223878 0.0 10101676
20:00+24в35683 0.0 101195